Powrót do katalogu

FENGYUN 1C DEB

AktywnyPO
NORAD 30998·DEBRIS·🇨🇳 China

Wystrzelony May 10, 1999 z Taiyuan Satellite Launch Center

Loading…

Następne Przeloty (najbliższe 24 godziny)

TLE

ŚwieżeSource: Space-Track

Epoka: Sep 14, 2026, 12:53 UTC

1 30998U 99025BCQ 26257.53722560  .00005340  00000-0  13224-2 0  9992
2 30998  98.8254 359.1624 0012572  89.2911  42.0912 14.52340696 11734

Śledź FENGYUN 1C DEB w czasie rzeczywistym z AllMySat

Download on the App Store